Aktuální počasí v Česku a ve světě - METAR

Seznam meteostanic umístěných nejčasteji na letišti v ČR a ve světě

Vyhledat místa podle abecedy:
A B C D E F G H I J K L M N O P Q R S T U V W X Y Z

Filtrovat:

ID stanice:
a/nebo
Název místa (fulltext):
 
Místo (ID)Naposledy načteno 
Jakarta (WIII) 24.04.2024 16:00 UTC Zobrazit METAR
WIII 241600Z 19004KT 5000 HZ SCT022 28/24 Q1008 NOSIG
Jerusalem (LLJR) Zatím nenačteno  
Joensuu (EFJO) 24.04.2024 15:50 UTC Zobrazit METAR
EFJO 241550Z AUTO 16005KT 9999 BKN044 03/M03 Q1015
Johannesburg (FAJS) 09.01.2013 23:00 UTC Zobrazit METAR
FAJS 092300Z 01010KT 340V040 CAVOK 22/11 Q1020 NOSIG
Johnston I (PJON) Zatím nenačteno  
Reklama

Krásné fotografie přírody - (nejen) tapety na pozadí do počítače

Článek
Fotogalerie jarních květin
13. dubna 2023 12:19
Článek
Fotografie slunečné zimní krajiny
7. prosince 2022 17:13
Článek
Obrázky na téma slunečno
25. srpna 2022 05:03
Článek
Obrázky květin
5. června 2022 12:12

Přidejte si Počasí Slunečno na svůj Facebook
Facebook Počasí Slunečno.cz
Aplikace pro Windows 10/11 nebo chytré mobilní telefony
Stáhněte si aplikaci Slunečno.cz na Microsoft Store Stáhněte si aplikaci Slunečno.cz na Google Play